Location: Austin
(30.3000°N, 97.7500°W)
Time: 05:53:29
(UTC-06:00)

SJ-6B - Pass Details

Date: 03 March 2026
Orbit: 457 x 500 km, 97.3° (Epoch: 6 March)

Event Time Altitude Azimuth Distance (km) Brightness Sun altitude
Exits shadow 20:06:45 12° 184° (S) 1,459 5.0 -21.4°
Maximum altitude 20:09:45 52° 260° (W) 577 3.2 -22.0°
Drops below altitude 10° 20:13:09 10° 338° (NNW) 1,620 5.5 -22.7°
Sets 20:15:15 0° 343° (NNW) 2,507 6.5 -23.2°
